Location: Waco, TX
(31.5480°N, 97.1670°W)
Time: 00:34:36
(UTC-06:00)

ISS - Pass Details

Date: 12 December 2017
Orbit: 403 x 407 km, 51.6° (Epoch: 12 December)

Event Time Altitude Azimuth Distance (km) Brightness Sun altitude
Rises 19:41:20 0° 321° (NW) 2,323 0.4 -28.0°
Enters shadow 19:42:09 - 323° (NW) 1,993 0.0 -28.1°
Reaches altitude 10° 19:43:29 10° 328° (NNW) 1,460 - -28.4°
Maximum altitude 19:46:38 43° 42° (NE) 574 - -29.1°
Drops below altitude 10° 19:49:46 10° 116° (ESE) 1,451 - -29.7°
Sets 19:51:53 0° 123° (ESE) 2,307 - -30.2°
